GW0175 Weather Reports


time (UTC)temp
C
wind
direction
speed
KPH
gust
KPH
rain 1hr
cm
rain 24hr
cm
rain mn
cm
humidity
%
barometer
mb
20260903021220 31 188 3.2 6.4 0.00 0.00 0.00 35 1010.8
20260903020720 31 158 0.0 4.8 0.00 0.00 0.00 35 1011.0
20260903020214 31 180 0.0 4.8 0.00 0.00 0.00 35 1010.9
20260903015709 32 180 1.6 4.8 0.00 0.00 0.00 34 1010.8
20260903015205 32 180 0.0 4.8 0.00 0.00 0.00 34 1010.6
20260903014701 32 180 1.6 3.2 0.00 0.00 0.00 34 1010.8
20260903014200 32 192 1.6 3.2 0.00 0.00 0.00 34 1010.9
20260903013655 32 163 3.2 4.8 0.00 0.00 0.00 33 1010.6
20260903013154 32 195 3.2 8.0 0.00 0.00 0.00 33 1010.6
20260903012653 32 180 3.2 6.4 0.00 0.00 0.00 33 1010.6
20260903012152 32 172 0.0 4.8 0.00 0.00 0.00 32 1010.4
20260903011653 33 188 1.6 9.7 0.00 0.00 0.00 32 1010.6
20260903011152 33 180 3.2 6.4 0.00 0.00 0.00 31 1010.4
20260903010647 33 167 4.8 8.0 0.00 0.00 0.00 31 1010.4
20260903010146 33 169 4.8 9.7 0.00 0.00 0.00 31 1010.1
20260903005641 34 160 1.6 8.0 0.00 0.00 0.00 31 1010.6
20260903005136 35 176 6.4 12.9 0.00 0.00 0.00 30 1010.3
20260903004631 35 196 4.8 12.9 0.00 0.00 0.00 29 1010.4
20260903004126 35 177 4.8 11.3 0.00 0.00 0.00 29 1010.4
20260903003622 35 172 4.8 12.9 0.00 0.00 0.00 29 1010.6
20260903003117 35 164 11.3 16.1 0.00 0.00 0.00 29 1010.8
20260903002612 35 189 6.4 12.9 0.00 0.00 0.00 29 1010.6
20260903002106 35 184 6.4 11.3 0.00 0.00 0.00 29 1010.4
20260903001601 35 193 4.8 11.3 0.00 0.00 0.00 30 1010.6
20260903001055 35 159 3.2 8.0 0.00 0.00 0.00 29 1010.6
20260903000551 35 171 9.7 9.7 0.00 0.00 0.00 28 1010.8
20260903000049 35 193 8.0 16.1 0.00 0.00 0.00 28 1010.4
20260902235544 35 184 3.2 9.7 0.00 0.00 0.00 27 1010.8
20260902235039 35 177 4.8 16.1 0.00 0.00 0.00 27 1010.9
20260902234538 36 173 9.7 14.5 0.00 0.00 0.00 28 1010.7
20260902234037 35 182 4.8 11.3 0.00 0.00 0.00 26 1010.6
20260902233532 36 150 4.8 6.4 0.00 0.00 0.00 27 1010.7
20260902233027 35 174 11.3 14.5 0.00 0.00 0.00 25 1010.7
20260902232526 35 174 11.3 12.9 0.00 0.00 0.00 25 1010.3
20260902232020 36 190 0.0 14.5 0.00 0.00 0.00 24 1010.6
20260902231515 36 234 6.4 6.4 0.00 0.00 0.00 25 1010.7
20260902231009 35 206 3.2 9.7 0.00 0.00 0.00 25 1010.9
20260902230509 35 184 6.4 9.7 0.00 0.00 0.00 25 1010.7
20260902230003 35 208 3.2 12.9 0.00 0.00 0.00 25 1010.9
20260902225458 35 185 3.2 8.0 0.00 0.00 0.00 26 1010.6
20260902224957 35 163 6.4 9.7 0.00 0.00 0.00 27 1010.7
20260902224451 35 182 6.4 12.9 0.00 0.00 0.00 26 1011.0
20260902223948 35 164 6.4 9.7 0.00 0.00 0.00 26 1011.0
20260902223443 35 177 4.8 9.7 0.00 0.00 0.00 27 1011.1
20260902222943 35 156 8.0 16.1 0.00 0.00 0.00 27 1011.0
20260902222441 35 181 8.0 12.9 0.00 0.00 0.00 26 1010.9
20260902221941 35 157 8.0 11.3 0.00 0.00 0.00 26 1010.8
20260902221439 35 185 8.0 11.3 0.00 0.00 0.00 25 1011.1
20260902220936 35 161 8.0 11.3 0.00 0.00 0.00 26 1011.3
20260902220435 35 178 6.4 11.3 0.00 0.00 0.00 25 1011.2
20260902215930 35 206 0.0 9.7 0.00 0.00 0.00 26 1011.1
20260902215426 35 149 6.4 11.3 0.00 0.00 0.00 27 1011.2
20260902214922 35 195 4.8 8.0 0.00 0.00 0.00 27 1011.4
20260902214420 35 189 4.8 9.7 0.00 0.00 0.00 28 1011.4
20260902213915 35 203 4.8 11.3 0.00 0.00 0.00 26 1011.3
20260902213412 35 223 6.4 12.9 0.00 0.00 0.00 25 1011.5
20260902212910 35 220 6.4 12.9 0.00 0.00 0.00 25 1011.8
20260902212406 35 244 6.4 16.1 0.00 0.00 0.00 24 1011.5
20260902211902 35 235 8.0 17.7 0.00 0.00 0.00 26 1011.9
20260902211358 35 223 6.4 17.7 0.00 0.00 0.00 27 1012.0
20260902210853 34 236 4.8 24.1 0.00 0.00 0.00 26 1011.9
20260902210352 35 212 8.0 25.7 0.00 0.00 0.00 25 1012.1
20260902205851 35 243 14.5 35.4 0.00 0.00 0.00 27 1012.3
20260902205345 33 242 20.9 35.4 0.00 0.00 0.00 30 1012.0
20260902204842 33 104 0.0 16.1 0.00 0.00 0.00 33 1012.4
20260902204336 33 222 17.7 27.4 0.00 0.00 0.00 33 1012.3
20260902203832 34 173 8.0 25.7 0.00 0.00 0.00 32 1012.2
20260902203326 34 206 1.6 22.5 0.00 0.00 0.00 34 1012.3
20260902202826 34 244 4.8 27.4 0.00 0.00 0.00 34 1012.5
20260902202322 36 195 19.3 24.1 0.00 0.00 0.00 28 1012.4
20260902201818 36 291 0.0 4.8 0.00 0.00 0.00 25 1012.5
20260902201313 37 219 8.0 12.9 0.00 0.00 0.00 25 1012.3
20260902200808 37 208 4.8 14.5 0.00 0.00 0.00 24 1012.3
20260902200303 37 165 8.0 14.5 0.00 0.00 0.00 26 1012.3
20260902195758 37 152 4.8 11.3 0.00 0.00 0.00 26 1012.6
20260902195257 37 345 6.4 9.7 0.00 0.00 0.00 26 1012.4
20260902194752 37 24 0.0 9.7 0.00 0.00 0.00 25 1012.5
20260902194247 37 300 0.0 6.4 0.00 0.00 0.00 26 1012.7
20260902193743 37 196 8.0 16.1 0.00 0.00 0.00 26 1012.6
20260902193238 37 235 0.0 6.4 0.00 0.00 0.00 27 1013.0
20260902192736 36 62 4.8 8.0 0.00 0.00 0.00 28 1013.0
20260902192236 37 239 4.8 4.8 0.00 0.00 0.00 26 1013.0
20260902191730 36 192 3.2 14.5 0.00 0.00 0.00 27 1013.0
20260902191225 37 171 8.0 8.0 0.00 0.00 0.00 26 1013.2
20260902190721 37 270 0.0 9.7 0.00 0.00 0.00 27 1013.1
20260902190220 36 0 3.2 6.4 0.00 0.00 0.00 27 1013.3
20260902185716 36 262 0.0 12.9 0.00 0.00 0.00 28 1013.3
20260902185212 37 235 3.2 8.0 0.00 0.00 0.00 28 1013.5
20260902184707 36 225 0.0 8.0 0.00 0.00 0.00 28 1013.6
20260902184202 36 190 3.2 8.0 0.00 0.00 0.00 28 1013.6
20260902183658 36 180 4.8 11.3 0.00 0.00 0.00 28 1013.6
20260902183154 36 194 1.6 8.0 0.00 0.00 0.00 29 1014.1
20260902182650 36 166 4.8 8.0 0.00 0.00 0.00 30 1014.2
20260902182147 36 191 9.7 14.5 0.00 0.00 0.00 30 1014.2
20260902181642 35 114 3.2 8.0 0.00 0.00 0.00 30 1014.1
20260902181142 35 168 6.4 6.4 0.00 0.00 0.00 30 1014.5
20260902180642 36 161 0.0 6.4 0.00 0.00 0.00 29 1014.5
20260902180138 35 156 3.2 12.9 0.00 0.00 0.00 31 1014.5
20260902175637 35 197 4.8 6.4 0.00 0.00 0.00 30 1014.2
20260902175133 34 348 0.0 8.0 0.00 0.00 0.00 32 1014.4
20260902174629 35 0 0.0 4.8 0.00 0.00 0.00 32 1014.8
20260902174125 35 150 4.8 6.4 0.00 0.00 0.00 31 1014.6
20260902173620 35 262 8.0 8.0 0.00 0.00 0.00 32 1014.7
20260902173115 34 183 4.8 9.7 0.00 0.00 0.00 33 1015.0
20260902172609 35 156 11.3 11.3 0.00 0.00 0.00 31 1015.0
20260902172103 35 26 4.8 6.4 0.00 0.00 0.00 31 1015.1
20260902171559 34 114 1.6 6.4 0.00 0.00 0.00 33 1015.3
20260902171055 34 154 1.6 4.8 0.00 0.00 0.00 33 1015.0
20260902170550 33 181 9.7 9.7 0.00 0.00 0.00 33 1015.3
20260902170045 33 103 0.0 8.0 0.00 0.00 0.00 35 1015.3
20260902165539 35 151 0.0 3.2 0.00 0.00 0.00 32 1015.8
20260902165034 33 173 0.0 6.4 0.00 0.00 0.00 34 1015.3
20260902164529 32 270 0.0 4.8 0.00 0.00 0.00 36 1015.5
20260902164028 32 23 3.2 4.8 0.00 0.00 0.00 37 1015.3
20260902163524 31 7 1.6 3.2 0.00 0.00 0.00 37 1015.4
20260902163021 32 172 0.0 3.2 0.00 0.00 0.00 36 1015.5
20260902162516 32 157 0.0 3.2 0.00 0.00 0.00 37 1015.5
20260902162011 31 166 0.0 3.2 0.00 0.00 0.00 37 1015.5
20260902161506 31 90 0.0 3.2 0.00 0.00 0.00 37 1015.5
20260902161002 31 304 0.0 4.8 0.00 0.00 0.00 38 1015.8
20260902160458 31 0 3.2 4.8 0.00 0.00 0.00 39 1015.6
20260902155955 31 7 1.6 4.8 0.00 0.00 0.00 39 1015.8
20260902155451 31 276 0.0 3.2 0.00 0.00 0.00 39 1015.5
20260902154945 30 60 0.0 4.8 0.00 0.00 0.00 41 1015.9
20260902154440 30 300 0.0 4.8 0.00 0.00 0.00 42 1015.6
20260902153940 29 0 4.8 4.8 0.00 0.00 0.00 42 1015.7
20260902153438 29 60 0.0 4.8 0.00 0.00 0.00 43 1015.6
20260902152934 28 90 4.8 8.0 0.00 0.00 0.00 44 1015.7
20260902152430 29 45 3.2 4.8 0.00 0.00 0.00 42 1015.8
20260902151925 28 90 1.6 4.8 0.00 0.00 0.00 45 1015.7
20260902151421 28 90 0.0 1.6 0.00 0.00 0.00 46 1015.8
20260902150915 26 63 3.2 4.8 0.00 0.00 0.00 49 1015.8
20260902150411 26 84 3.2 6.4 0.00 0.00 0.00 49 1015.7
20260902145910 26 59 4.8 6.4 0.00 0.00 0.00 48 1015.7
20260902145406 27 123 3.2 4.8 0.00 0.00 0.00 48 1015.6
20260902144901 27 23 3.2 3.2 0.00 0.00 0.00 48 1015.8
20260902144357 27 12 0.0 4.8 0.00 0.00 0.00 47 1015.7
20260902143857 26 349 3.2 8.0 0.00 0.00 0.00 49 1015.6
20260902143352 27 14 1.6 4.8 0.00 0.00 0.00 49 1015.6
20260902142848 27 356 3.2 4.8 0.00 0.00 0.00 48 1015.5
20260902142344 27 90 0.0 1.6 0.00 0.00 0.00 49 1015.6
20260902141839 26 4 3.2 4.8 0.00 0.00 0.00 48 1015.4
20260902141334 26 328 0.0 4.8 0.00 0.00 0.00 49 1015.4
20260902140833 26 270 0.0 3.2 0.00 0.00 0.00 48 1015.4
20260902140328 26 222 0.0 4.8 0.00 0.00 0.00 49 1015.5
20260902135828 25 334 0.0 1.6 0.00 0.00 0.00 51 1015.4
20260902135324 24 0 1.6 4.8 0.00 0.00 0.00 53 1015.0
20260902134823 24 18 4.8 4.8 0.00 0.00 0.00 54 1015.1
20260902134319 24 0 0.0 0.0 0.00 0.00 0.00 54 1015.4
20260902133814 23 352 3.2 3.2 0.00 0.00 0.00 56 1015.0
20260902133314 23 15 1.6 3.2 0.00 0.00 0.00 58 1015.0
20260902132809 22 19 3.2 3.2 0.00 0.00 0.00 59 1015.1
20260902132306 22 0 1.6 3.2 0.00 0.00 0.00 61 1015.0
20260902131800 21 348 1.6 4.8 0.00 0.00 0.00 61 1015.1
20260902131256 21 5 1.6 3.2 0.00 0.00 0.00 61 1014.9
20260902130755 21 23 1.6 3.2 0.00 0.00 0.00 61 1015.0
20260902130251 21 5 1.6 4.8 0.00 0.00 0.00 61 1014.7
20260902125747 21 326 0.0 3.2 0.00 0.00 0.00 62 1015.0
20260902125242 21 353 0.0 1.6 0.00 0.00 0.00 63 1015.0
20260902124738 20 26 0.0 0.0 0.00 0.00 0.00 63 1014.9
20260902124234 20 23 0.0 3.2 0.00 0.00 0.00 63 1014.6
20260902123729 20 4 3.2 3.2 0.00 0.00 0.00 63 1014.6
20260902123225 20 40 0.0 3.2 0.00 0.00 0.00 62 1014.5
20260902122723 21 29 1.6 3.2 0.00 0.00 0.00 60 1014.4
20260902122219 21 285 0.0 0.0 0.00 0.00 0.00 61 1014.5
20260902121714 21 348 0.0 0.0 0.00 0.00 0.00 60 1014.6
20260902121209 21 209 0.0 1.6 0.00 0.00 0.00 59 1014.4
20260902120705 21 234 0.0 3.2 0.00 0.00 0.00 59 1014.4
20260902120201 21 352 0.0 6.4 0.00 0.00 0.00 59 1014.5
20260902115701 21 0 0.0 0.0 0.00 0.00 0.00 58 1014.5
20260902115157 21 345 0.0 1.6 0.00 0.00 0.00 58 1014.2
20260902114653 21 334 0.0 1.6 0.00 0.00 0.00 58 1014.2
20260902114148 22 0 0.0 1.6 0.00 0.00 0.00 57 1014.1
20260902113643 22 294 0.0 0.0 0.00 0.00 0.00 56 1014.2
20260902113138 22 294 0.0 0.0 0.00 0.00 0.00 56 1014.3
20260902112632 22 270 0.0 0.0 0.00 0.00 0.00 56 1014.4
20260902112130 22 355 0.0 3.2 0.00 0.00 0.00 55 1014.2
20260902111625 22 0 0.0 3.2 0.00 0.00 0.00 57 1014.4
20260902111121 23 81 0.0 0.0 0.00 0.00 0.00 59 1014.5
20260902110617 23 81 0.0 0.0 0.00 0.00 0.00 60 1014.3
20260902110113 23 81 0.0 0.0 0.00 0.00 0.00 60 1014.3
20260902105612 23 78 0.0 3.2 0.00 0.00 0.00 60 1014.2
20260902105107 22 14 0.0 0.0 0.00 0.00 0.00 61 1014.2
20260902104602 22 165 0.0 0.0 0.00 0.00 0.00 61 1014.2
20260902104057 22 165 0.0 1.6 0.00 0.00 0.00 61 1014.2
20260902103552 22 63 0.0 0.0 0.00 0.00 0.00 59 1014.5
20260902103047 23 300 0.0 1.6 0.00 0.00 0.00 59 1014.2
20260902102544 23 8 0.0 0.0 0.00 0.00 0.00 59 1014.1
20260902102041 23 8 0.0 0.0 0.00 0.00 0.00 60 1014.3
20260902101536 22 8 0.0 3.2 0.00 0.00 0.00 59 1014.4
20260902101035 23 345 1.6 4.8 0.00 0.00 0.00 57 1014.1
20260902100534 25 172 0.0 0.0 0.00 0.00 0.00 56 1014.3
20260902100034 25 165 0.0 1.6 0.00 0.00 0.00 56 1014.1
20260902095534 25 164 3.2 4.8 0.00 0.00 0.00 56 1014.2
20260902095033 25 203 0.0 1.6 0.00 0.00 0.00 56 1014.1
20260902094529 25 261 0.0 0.0 0.00 0.00 0.00 56 1014.1
20260902094025 25 187 0.0 1.6 0.00 0.00 0.00 56 1014.1
20260902093519 25 261 0.0 3.2 0.00 0.00 0.00 55 1014.2
20260902093019 26 216 0.0 3.2 0.00 0.00 0.00 53 1014.2
20260902092514 26 173 1.6 6.4 0.00 0.00 0.00 53 1014.2
20260902092009 26 200 1.6 4.8 0.00 0.00 0.00 53 1014.2
20260902091504 26 145 1.6 4.8 0.00 0.00 0.00 53 1014.4
20260902091000 26 180 1.6 4.8 0.00 0.00 0.00 53 1014.1
20260902090455 26 194 3.2 6.4 0.00 0.00 0.00 54 1014.3
20260902085954 26 180 4.8 4.8 0.00 0.00 0.00 54 1014.2
20260902085449 25 183 3.2 4.8 0.00 0.00 0.00 55 1014.2
20260902084944 25 148 3.2 3.2 0.00 0.00 0.00 55 1014.3
20260902084441 25 151 0.0 3.2 0.00 0.00 0.00 56 1014.2
20260902083931 25 81 0.0 0.0 0.00 0.00 0.00 55 1014.4
20260902083430 25 74 0.0 1.6 0.00 0.00 0.00 54 1014.4
20260902082925 25 184 3.2 6.4 0.00 0.00 0.00 54 1014.1
20260902082421 25 170 3.2 6.4 0.00 0.00 0.00 54 1014.3
20260902081918 25 168 0.0 4.8 0.00 0.00 0.00 54 1014.3
20260902081414 25 175 3.2 6.4 0.00 0.00 0.00 53 1014.4
20260902080908 25 151 0.0 4.8 0.00 0.00 0.00 53 1014.6
20260902080404 25 102 0.0 3.2 0.00 0.00 0.00 52 1014.3
20260902075903 25 81 0.0 4.8 0.00 0.00 0.00 52 1014.2
20260902075400 25 150 0.0 3.2 0.00 0.00 0.00 52 1014.3
20260902074855 26 145 0.0 3.2 0.00 0.00 0.00 53 1014.3
20260902074351 26 157 0.0 4.8 0.00 0.00 0.00 52 1014.5
20260902073845 26 177 0.0 6.4 0.00 0.00 0.00 52 1014.4
20260902073342 26 176 3.2 6.4 0.00 0.00 0.00 51 1014.4
20260902072838 26 166 1.6 4.8 0.00 0.00 0.00 51 1014.2
20260902072333 26 184 6.4 6.4 0.00 0.00 0.00 50 1014.2
20260902071830 27 183 4.8 8.0 0.00 0.00 0.00 50 1014.4
20260902071324 27 138 4.8 9.7 0.00 0.00 0.00 49 1014.1
20260902070821 26 155 8.0 8.0 0.00 0.00 0.00 49 1014.3
20260902070320 26 195 3.2 4.8 0.00 0.00 0.00 49 1014.2
20260902065819 26 175 3.2 4.8 0.00 0.00 0.00 48 1014.5
20260902065314 26 202 3.2 6.4 0.00 0.00 0.00 48 1014.2
20260902064810 26 180 3.2 6.4 0.00 0.00 0.00 48 1014.1
20260902064306 26 184 0.0 4.8 0.00 0.00 0.00 47 1014.1
20260902063801 26 180 1.6 4.8 0.00 0.00 0.00 47 1014.1
20260902063255 27 178 6.4 6.4 0.00 0.00 0.00 46 1013.9
20260902062755 26 165 6.4 6.4 0.00 0.00 0.00 47 1013.9
20260902062250 26 163 0.0 6.4 0.00 0.00 0.00 47 1013.7
20260902061749 25 164 4.8 6.4 0.00 0.00 0.00 48 1013.9
20260902061245 25 148 0.0 3.2 0.00 0.00 0.00 48 1014.2
20260902060742 25 162 3.2 4.8 0.00 0.00 0.00 48 1014.1
20260902060237 25 143 3.2 6.4 0.00 0.00 0.00 48 1014.1
20260902055732 26 163 3.2 4.8 0.00 0.00 0.00 45 1013.9
20260902055228 26 195 1.6 3.2 0.00 0.00 0.00 45 1013.9
20260902054723 26 15 0.0 0.0 0.00 0.00 0.00 44 1013.6
20260902054219 26 114 0.0 0.0 0.00 0.00 0.00 44 1013.8
20260902053714 26 66 0.0 1.6 0.00 0.00 0.00 44 1013.9
20260902053214 26 348 0.0 3.2 0.00 0.00 0.00 44 1013.8
20260902052713 26 6 1.6 4.8 0.00 0.00 0.00 44 1014.1
20260902052209 26 36 3.2 3.2 0.00 0.00 0.00 43 1013.9
20260902051708 27 8 0.0 1.6 0.00 0.00 0.00 43 1013.9
20260902051203 27 0 0.0 1.6 0.00 0.00 0.00 43 1014.2
20260902050657 26 23 0.0 0.0 0.00 0.00 0.00 44 1013.8
20260902050153 27 188 0.0 0.0 0.00 0.00 0.00 43 1014.1
20260902045647 27 188 0.0 3.2 0.00 0.00 0.00 43 1014.1
20260902045143 27 29 0.0 3.2 0.00 0.00 0.00 42 1014.2
20260902044638 27 117 0.0 4.8 0.00 0.00 0.00 42 1014.1
20260902044134 27 0 0.0 0.0 0.00 0.00 0.00 42 1014.2
20260902043629 27 0 0.0 0.0 0.00 0.00 0.00 41 1014.2
20260902043124 28 0 0.0 3.2 0.00 0.00 0.00 41 1014.1
20260902042623 28 8 1.6 1.6 0.00 0.00 0.00 41 1014.5
20260902042119 28 81 0.0 1.6 0.00 0.00 0.00 41 1014.2
20260902041618 28 0 3.2 6.4 0.00 0.00 0.00 42 1013.8
20260902041113 27 342 0.0 4.8 0.00 0.00 0.00 42 1014.1
20260902040608 27 0 0.0 1.6 0.00 0.00 0.00 42 1013.9
20260902040103 27 15 0.0 0.0 0.00 0.00 0.00 42 1014.1
20260902035601 27 15 0.0 0.0 0.00 0.00 0.00 42 1013.9
20260902035056 27 15 0.0 0.0 0.00 0.00 0.00 43 1013.7
20260902034555 27 15 0.0 0.0 0.00 0.00 0.00 43 1013.9
20260902034055 28 15 0.0 0.0 0.00 0.00 0.00 42 1013.8
20260902033554 28 15 0.0 1.6 0.00 0.00 0.00 42 1013.7
20260902033049 28 352 0.0 3.2 0.00 0.00 0.00 43 1013.7
20260902032548 28 352 0.0 1.6 0.00 0.00 0.00 43 1013.3
20260902032043 28 353 0.0 0.0 0.00 0.00 0.00 42 1013.6
20260902031538 28 353 0.0 4.8 0.00 0.00 0.00 42 1013.5
20260902031034 28 351 6.4 6.4 0.00 0.00 0.00 41 1013.4
20260902030529 28 8 4.8 4.8 0.00 0.00 0.00 41 1013.3
20260902030028 29 12 3.2 4.8 0.00 0.00 0.00 41 1013.3
20260902025523 29 24 3.2 4.8 0.00 0.00 0.00 41 1013.0
20260902025018 30 0 3.2 4.8 0.00 0.00 0.00 41 1013.1
20260902024514 30 7 1.6 3.2 0.00 0.00 0.00 41 1013.0
20260902024008 30 351 3.2 3.2 0.00 0.00 0.00 41 1013.0
20260902023504 30 14 1.6 3.2 0.00 0.00 0.00 40 1013.0
20260902023004 30 15 0.0 3.2 0.00 0.00 0.00 40 1013.0
20260902022458 30 70 0.0 4.8 0.00 0.00 0.00 40 1013.1
20260902021954 30 53 3.2 4.8 0.00 0.00 0.00 40 1012.9